Flag for U.S.A. Weather past 2 weeks in Elizabeth, New Jersey, U.S.A.

Now
31 °F

Overcast.


Feels Like: 23 °F
Forecast: 27 / 37 °F
Wind: 8 mph from Northeast

Location: Newark International Airport

Current Time: Dec 20, 2014 at 9:06:21 AM

Latest Report: Dec 20, 2014 at 7:51 AM


Visibility: 10 mi

Pressure: 30.27 "Hg

Humidity: 67%

Dew point: 21 °F

Location of ElizabethLocation

Historic Weather in Elizabeth — Graph

°F

Elizabeth temperature yesterday

Maximum temperature yesterday: 40 °F (at 1:51 PM)
Minimum temperature yesterday: 32 °F (at 7:51 PM)
Average temperature yesterday: 35 °F

Past Weeks' High & Low Weather Summary

 TemperatureHumidityPressure
High53 °F (Dec 17, 10:51 AM)100% (Dec 6, 12:51 AM)30.69 "Hg (Dec 6, 12:51 AM)
Low24 °F (Dec 8, 3:51 AM)30% (Dec 7, 4:51 PM)29.60 "Hg (Dec 10, 2:51 PM)
Average39 °F70%30.05 "Hg
* Reported Dec 5 7:51 AM — Dec 20 7:51 AM, Elizabeth, Weather by CustomWeather, © 2014

Note: Actual official high and low records may vary slightly from our data, if they occured in-between our weather recording intervals... More about our weather records

Advertising

Elizabeth weather history for previous 24 hours

 ConditionsComfort  
Time TempWeatherWind HumidityBarometerVisibility
7:51 AM
Dec 20
31 °FOvercast.8 mph67%30.27 "Hg10 mi
6:51 AM32 °FOvercast.9 mph64%30.27 "Hg10 mi
5:51 AM32 °FOvercast.5 mph64%30.26 "Hg10 mi
4:51 AM31 °FOvercast.3 mph67%30.24 "Hg10 mi
3:51 AM32 °FOvercast.8 mph64%30.22 "Hg10 mi
2:51 AM32 °FOvercast.7 mph66%30.21 "Hg10 mi
1:51 AM32 °FOvercast.14 mph64%30.19 "Hg10 mi
12:51 AM32 °FOvercast.10 mph64%30.19 "Hg10 mi
11:51 PM
Dec 19
32 °FOvercast.9 mph64%30.20 "Hg10 mi
10:51 PM32 °FPassing clouds.8 mph64%30.19 "Hg10 mi
9:51 PM32 °FPassing clouds.10 mph64%30.17 "Hg10 mi
8:51 PM32 °FPassing clouds.10 mph64%30.15 "Hg10 mi
7:51 PM32 °FPassing clouds.12 mph64%30.16 "Hg10 mi
6:51 PM33 °FPassing clouds.14 mph61%30.16 "Hg10 mi
5:51 PM33 °FPassing clouds.14 mph61%30.13 "Hg10 mi
4:51 PM33 °FPassing clouds.14 mph61%30.11 "Hg10 mi
3:51 PM35 °FPartly sunny.17 mph59%30.09 "Hg10 mi
2:51 PM37 °FScattered clouds.16 mph54%30.06 "Hg10 mi
1:51 PM40 °FPartly sunny.15 mph47%30.04 "Hg10 mi
12:51 PM38 °FPartly sunny.14 mph48%30.04 "Hg10 mi
11:51 AM38 °FPartly sunny.17 mph48%30.04 "Hg10 mi
10:51 AM36 °FPartly sunny.15 mph52%30.06 "Hg10 mi
9:51 AM36 °FOvercast.14 mph57%30.07 "Hg10 mi
Weather by CustomWeather, © 2014

See weather overviewHow to use our weather pages